Flag for Czech Republic Weather past 2 weeks in Ostrava, Czech Republic

Now
64 °F

Fog.


Feels Like: 64 °F
Forecast: 64 / 87 °F
Wind: 2 mph from North

Location: Ostrava / Mosnov

Current Time: Aug 1, 2014 at 4:46:12 AM

Latest Report: Aug 1, 2014 at 4:00 AM


Visibility: 4 mi

Pressure: 29.94 "Hg

Humidity: 96%

Dew point: 63 °F

Location of OstravaLocation

Historic Weather in Ostrava — Graph

°F

Ostrava temperature yesterday

Maximum temperature yesterday: 69 °F (at 11:00 AM)
Minimum temperature yesterday: 64 °F (at 8:00 PM)
Average temperature yesterday: 67 °F

Past Weeks' High & Low Weather Summary

 TemperatureHumidityPressure
High88 °F (Jul 20, 4:00 PM)99% (Jul 29, 5:00 AM)30.16 "Hg (Jul 29, 5:00 AM)
Low57 °F (Jul 26, 6:00 AM)35% (Jul 19, 3:00 PM)29.73 "Hg (Jul 21, 11:00 AM)
Average70 °F75%29.91 "Hg
* Reported Jul 17 3:00 AM — Aug 1 3:00 AM, Ostrava, Weather by CustomWeather, © 2014

Note: Actual official high and low records may vary slightly from our data, if they occured in-between our weather recording intervals... More about our weather records

Advertising

Ostrava weather history for previous 24 hours

 ConditionsComfort  
Time TempWeatherWind HumidityBarometerVisibility
3:00 AM
Aug 1
64 °FOvercast.3 mph96%29.93 "Hg6 mi
2:00 AM64 °FLight rain. Low clouds.N/A98%29.93 "Hg4 mi
1:00 AM64 °FRain. Low clouds.2 mph97%29.94 "Hg2 mi
12:00 AM65 °FLow clouds.N/A96%29.94 "Hg4 mi
11:00 PM
Jul 31
64 °FRain. Low clouds.N/A96%29.94 "Hg2 mi
10:00 PM64 °FLight rain. Low clouds.N/A96%29.93 "Hg6 mi
9:00 PM64 °FRain. Low clouds.N/A97%29.93 "Hg4 mi
8:00 PM64 °FHeavy rain. Low clouds.3 mph98%29.93 "Hg2 mi
7:00 PM65 °FRain. Low clouds.3 mph93%29.91 "Hg5 mi
6:00 PM67 °FLight rain. Overcast.5 mph84%29.89 "Hg12 mi
5:00 PM68 °FOvercast.8 mph84%29.89 "Hg12 mi
4:00 PM67 °FOvercast.6 mph89%29.88 "Hg12 mi
3:10 PM67 °FLight rain. Low clouds.3 mph93%29.88 "Hg7 mi
2:00 PM69 °FLight rain. Low clouds.3 mph95%29.87 "Hg2 mi
1:00 PM69 °FLight rain. Low clouds.3 mph97%29.87 "Hg1 mi
12:00 PM69 °FFog.6 mph95%29.86 "Hg2 mi
11:00 AM69 °FLow clouds.5 mph95%29.85 "Hg2 mi
10:00 AM67 °FRain. Low clouds.3 mph97%29.86 "Hg2 mi
9:00 AM67 °FFog.5 mph96%29.85 "Hg2 mi
8:00 AM68 °FLow clouds.5 mph95%29.83 "Hg3 mi
7:00 AM68 °FLight rain. Low clouds.3 mph93%29.82 "Hg5 mi
6:00 AM68 °FFog.2 mph92%29.81 "Hg6 mi
5:00 AM66 °FFog.2 mph96%29.80 "Hg5 mi
4:00 AM66 °FFog.N/A93%29.80 "Hg5 mi
Weather by CustomWeather, © 2014

See weather overviewHow to use our weather pages